Location: Barrio San Pedro
(41.0776°N, 4.2683°W)
Time: 22:54:22
(UTC+00:00)

Daily predictions for brighter satellites

Satellite Brightness Start Highest point End
(mag) Time Altitude Azimuth Time Altitude Azimuth Time Altitude Azimuth
Cosmos 2227 Rocket 3.6 18:12:36 10° NW 18:17:56 44° WSW 18:23:16 10° S
NOAA 6 4.5 18:15:41 10° S 18:20:48 69° WSW 18:25:59 10° NNW
PSLV R/B 4.1 18:17:52 10° SE 18:21:18 38° ENE 18:24:43 10° N
Cosmos 2322 Rocket 3.5 18:17:40 10° SE 18:21:26 18° E 18:25:14 10° ENE
Cosmos 1726 2.6 18:18:09 10° SSE 18:21:32 38° E 18:24:56 10° NNE
Cosmos 1470 4.4 18:24:29 10° ESE 18:26:26 14° E 18:28:21 10° NE
Cosmos 1980 Rocket 2.6 18:21:28 10° SSW 18:27:05 70° WNW 18:32:42 10° NNE
CZ-4B R/B 3.7 18:22:36 10° SE 18:27:34 39° ENE 18:32:38 10° N
Cosmos 841 Rocket 3.4 18:24:23 10° NNW 18:29:33 71° ENE 18:34:39 10° SSE
Cosmos 1378 Rocket 3.8 18:26:55 10° N 18:31:07 44° ENE 18:35:15 10° SSE
Timation 2 Rocket 4.0 18:26:06 10° NNW 18:32:28 63° ENE 18:38:31 10° SE
ARGOS Delta rocket 4.1 18:28:26 10° NNE 18:33:29 50° E 18:38:14 10° S
DMSP B5D2-2 4.2 18:29:00 10° NNE 18:34:19 87° WNW 18:39:34 10° SSW
Meteor 2-14 Rocket 4.4 18:32:02 10° S 18:38:01 66° E 18:44:01 10° NNE
Cosmos 1733 Rocket 3.5 18:35:58 10° SSW 18:40:22 70° W 18:44:50 10° N
COBE Rocket 3.9 18:40:53 10° SSE 18:45:38 56° ENE 18:50:17 10° N
USA 215 4.1 18:40:23 10° NE 18:46:38 50° NNW 18:52:52 10° WSW
Cosmos 2221 Rocket 3.8 18:44:38 10° N 18:49:11 81° W 18:53:44 10° S
Cosmos 2279 Rocket 4.3 18:43:32 10° NNW 18:49:47 73° W 18:56:00 10° S
Cosmos 2278 3.8 18:44:48 10° SSW 18:50:29 83° WNW 18:56:12 10° NNE
Cosmos 1844 Rocket 4.1 18:46:24 10° N 18:50:30 20° NE 18:52:59 15° E
SL-16 R/B 2.4 18:45:57 10° S 18:51:20 47° ESE 18:56:46 10° NE
PAYLOAD B 4.3 18:48:01 10° SSE 18:53:33 86° WSW 18:59:04 10° NNW
Cosmos 1092 Rocket 4.4 18:49:00 10° SSE 18:54:43 38° E 19:00:25 10° NNE
Cosmos 1570 Rocket 4.4 18:51:25 10° N 18:56:23 41° ENE 19:00:57 12° SE
Meteor 2-21 Rocket 4.3 18:54:44 10° S 19:00:43 69° E 19:06:44 10° NNE
SJ-6B 4.4 19:02:07 17° ENE 19:02:07 17° ENE 19:04:15 10° NNE
HJ-1C 3.1 18:59:44 10° SSE 19:02:47 60° ENE 19:05:52 10° N
DMSP B5D1-3 4.5 18:58:24 10° NNE 19:03:29 61° ESE 19:08:31 10° S
Cosmos 1437 Rocket 2.6 19:00:08 10° S 19:03:49 57° E 19:07:29 10° NNE
COSMO-SKYMED 1 4.2 19:00:06 10° N 19:04:08 38° WNW 19:08:08 10° SW
Cosmos 2263 Rocket 2.5 19:04:28 10° NNW 19:10:08 69° WSW 19:15:46 10° SSE
Meteor 1-24 Rocket 3.9 19:07:09 10° N 19:12:12 42° ENE 19:16:12 16° SE
IRIDIUM 104 4.4 19:08:48 10° S 19:14:01 80° W 19:19:15 10° N
Meteor 2-16 Rocket 4.4 19:08:34 10° S 19:14:39 75° E 19:20:49 10° N
OAO 2 Rocket 4.0 19:10:07 10° WSW 19:14:43 41° S 19:17:05 24° SE
Feng Yun 1-1 Rocket 4.2 19:10:01 10° SSE 19:15:26 63° ENE 19:20:46 10° N
SL-4 R/B 2.3 19:11:11 10° NW 19:15:40 68° NNE 19:17:52 30° ESE
Cosmos 2084 Rocket 4.2 19:16:06 10° NNW 19:19:30 29° NE 19:19:51 28° ENE
Cosmos 1814 Rocket 4.0 19:14:47 10° NNW 19:20:02 82° WSW 19:25:11 10° SSE
USA 267 3.3 19:14:27 15° SE 19:20:06 86° SW 19:26:42 10° NW
Okean-O 3.6 19:20:29 27° ENE 19:20:29 27° ENE 19:24:12 10° N
Cosmos 1486 Rocket 4.5 19:16:06 10° SSE 19:20:56 37° E 19:25:48 10° NE
CZ-4 R/B 1.3 19:17:25 10° SSE 19:21:35 81° ENE 19:25:46 10° N
ISS -2.5 19:19:41 10° WNW 19:22:50 37° SW 19:24:26 22° S
IGS 5A 4.3 19:24:37 31° ENE 19:24:37 31° ENE 19:27:56 10° N
DNEPR-1 R/B 3.8 19:20:29 10° SSW 19:24:52 59° ESE 19:30:09 10° NE
Cosmos 2208 Rocket 4.1 19:19:47 10° NNW 19:25:08 59° ENE 19:28:16 25° SE
Meteor 1-22 Rocket 4.0 19:20:42 10° S 19:26:03 72° E 19:31:38 10° NNE
Cosmos 2227 4.2 19:22:06 10° NNW 19:27:44 84° WSW 19:33:05 11° SSE
Cosmos 2333 Rocket 3.9 19:23:07 10° SSE 19:24:21 15° SSE 19:24:21 15° SSE
Cosmos 1908 Rocket 4.1 19:24:31 10° SSW 19:28:47 60° W 19:33:05 10° N
Cosmos 1428 Rocket 4.4 19:24:05 10° S 19:30:12 73° E 19:36:26 10° NNE
CSL-04 Debris 4.4 19:28:02 29° SE 19:30:29 48° ENE 19:35:40 10° N
Helios 1B 4.4 19:27:32 10° NNE 19:31:53 77° ESE 19:36:11 10° S
Cosmos 1627 Rocket 4.3 19:27:39 10° S 19:33:42 69° E 19:39:47 10° NNE
Cosmos 2195 Rocket 4.4 19:27:44 10° S 19:33:57 81° E 19:40:16 10° N
Cosmos 2360 Rocket 2.3 19:30:27 10° S 19:35:52 50° ESE 19:41:19 10° NE
Cosmos 1782 Rocket 3.4 19:32:38 10° S 19:36:58 86° E 19:41:20 10° N
USA 81 4.0 19:35:47 10° N 19:41:01 62° E 19:43:22 32° SSE
YAOGAN 1 3.8 19:37:00 10° S 19:41:06 42° W 19:45:14 10° NNW
Cosmos 1025 Rocket 2.9 19:40:39 10° N 19:44:51 61° ENE 19:44:51 61° ENE
Okean O Rocket 2.5 19:41:01 10° S 19:45:12 48° W 19:49:27 10° NNW
Cosmos 968 Rocket 4.4 19:42:00 10° SW 19:47:05 49° WNW 19:52:10 10° N
Lacrosse 4 Rocket 1.4 19:44:16 10° SSW 19:48:20 75° WNW 19:50:17 30° NNE
Cosmos 2026 Rocket 3.8 19:44:12 10° S 19:50:15 89° W 19:56:21 10° N
USA 186 3.6 19:55:51 26° N 19:55:51 26° N 19:57:27 10° N
CSL-04 Rocket 3.5 19:55:05 52° SE 19:56:22 73° ENE 20:01:46 10° N
BREEZE-M R/B 4.2 19:56:22 10° W 19:58:02 35° NW 19:58:02 35° NW
Meteor 2-5 Rocket 4.1 19:54:52 10° NNW 20:00:20 63° W 20:05:38 11° S
Cosmos 1470 4.2 19:58:24 10° SSW 20:01:58 37° WNW 20:05:34 10° N
Landsat 7 4.4 20:04:06 44° NNE 20:04:06 44° NNE 20:07:32 10° N
Cosmos 2322 Rocket 2.6 19:59:17 10° SW 20:04:54 62° WNW 20:10:35 10° NNE
Cosmos 1553 Rocket 4.0 19:59:31 10° N 20:05:51 63° E 20:06:34 59° ESE
COSMOS 2455 4.4 20:01:39 10° S 20:03:25 20° S 20:03:25 20° S
Cosmos 1975 Rocket 3.3 20:05:51 10° NNW 20:10:13 64° W 20:10:19 64° WSW
NOSS 3-3 (A) 3.7 20:13:08 10° SW 20:18:36 86° WNW 20:20:03 54° NNE
NOSS 3-3 (C) 3.7 20:13:13 10° SW 20:18:42 87° NW 20:19:58 58° NNE
Aureole 1 Rocket 4.0 20:15:09 10° SSW 20:22:50 80° ESE 20:29:00 10° NNE
IRS-1C Rocket 4.1 20:24:43 74° WSW 20:24:44 74° WSW 20:30:00 10° NNW
Cosmos 1844 Rocket 2.9 20:29:17 10° NNW 20:34:40 67° W 20:34:40 67° W
Resurs 01 Rocket 4.0 20:38:53 16° N 20:38:53 16° N 20:39:50 10° N
SL-16 R/B 4.2 20:30:57 10° WSW 20:35:40 26° NW 20:40:24 10° N
Cosmos 2278 Rocket 4.3 20:46:04 10° N 20:47:32 16° NNE 20:47:32 16° NNE
ATLAS 5 CENTAUR R/B 4.5 20:43:26 10° WSW 20:56:56 21° SSW 20:58:17 21° S
Cosmos 2360 Rocket 4.2 21:15:33 10° WSW 21:20:08 25° NW 21:24:44 10° N
